Regional Weather Roundup
Issued by NWS

Home | Current Version | Previous Version | Graphics & Text | Print | Product List | Glossary On
Versions: 1 2 3 4 5 6 7 8 9 10 11 12 13 14 15 16 17 18 19 20 21 22 23 24 25 26 27 28 29 30 31 32 33 34 35 36 37 38 39 40 41 42 43 44 45 46 47 48 49 50
000
ASUS45 KBOI 042110
RWRID
WEATHER ROUNDUP FOR IDAHO
NATIONAL WEATHER SERVICE BOISE ID
300 PM MDT MON MAY 04 2015

NOTE: "FAIR" INDICATES FEW OR NO CLOUDS BELOW 12000 FEET
WITH NO SIGNIFICANT WEATHER AND/OR OBSTRUCTIONS TO VISIBILITY

IDZ012-014-042200-
SOUTHWEST IDAHO


CITY           SKY/WX    TMP DP  RH WIND       PRES   REMARKS
BOISE          SUNNY     83  33  16 VRB5      29.80F
CALDWELL       SUNNY     79  39  24 CALM      29.81F
MOUNTAIN HOME  MOSUNNY   81  37  20 VRB2      29.79F
$$

IDZ016-017-042200-
SOUTHCENTRAL IDAHO


CITY           SKY/WX    TMP DP  RH WIND       PRES   REMARKS
BURLEY         MOSUNNY   75  34  22 CALM      29.86F
JEROME         MOSUNNY   76  33  21 E6        29.86F
TWIN FALLS     PTSUNNY   75  37  25 N3        29.87F
$$

IDZ019>023-042200-
SOUTHEAST IDAHO


CITY           SKY/WX    TMP DP  RH WIND       PRES   REMARKS
IDAHO FALLS    PTSUNNY   74  33  22 W6        29.92F
POCATELLO      MOSUNNY   76  29  17 W7        29.90F
REXBURG        MOSUNNY   70  28  21 VRB5      29.92F
$$

IDZ006-010-011-018-031-032-042200-
CENTRAL IDAHO MOUNTAINS


CITY           SKY/WX    TMP DP  RH WIND       PRES   REMARKS
MCCALL         PTSUNNY   71  30  21 NE14G23   29.89F
HAILEY         MOSUNNY   70  34  26 W16G24    29.94F
STANLEY        NOT AVBL
SALMON           N/A     73  30  20 N7        29.85F
CHALLIS        CLOUDY    69  29  22 VRB6      29.92S
$$

IDZ002-004-006-007-026-042200-
NORTHERN IDAHO


CITY           SKY/WX    TMP DP  RH WIND       PRES   REMARKS
LEWISTON       SUNNY     78  33  19 VRB5      29.79F
LOWELL           N/A     81  39  22 S3        29.75F
COEUR D`ALENE  SUNNY     70  21  16 CALM      29.84F
MULLAN PASS    SUNNY     58  13  17 VRB7      29.94F
$$


USA.gov is the U.S. government's official web portal to all federal, state and local government web resources and services.